Temp
9 9 9 9 9 9 11 12 14 14 14 14 14 14 14 14 14 14 15 15 15 15 15 15 15 16 17 17 18 19 19 19 19 19 19 20 21 21 21 21 21 22 22 22 22 22 22 22 22 23 22 22 22 23 24 24 25 25 24 22 22 22 23 24 25 25 25 25 25 26 26 26 26 27 28 28 28 27 27 26 26 26 26 25 25 25 23 23
9 9 9 9 9 11 13 14 15 14 14 15 14 14 14 14 15 15 16 16 16 16 16 16 16 17 17 18 18 19 19 20 19 18 20 22 21 21 21 21 21 22 22 22 22 21 21 21 22 22 22 22 23 24 24 25 25 24 24 23 22 23 24 25 25 26 26 25 26 26 26 26 26 26 27 27 27 27 26 26 25 25 24 24 24 23 23 23
10 10 10 10 11 13 14 15 14 15 15 15 14 14 14 14 15 16 16 16 17 16 16 16 17 17 17 18 18 19 19 19 19 20 21 22 21 22 22 21 21 22 22 22 22 21 21 21 21 21 21 22 23 24 24 25 25 25 24 23 23 25 25 26 26 26 26 25 26 26 26 26 26 26 27 27 27 27 26 25 25 24 23 23 23 22 22 23
10 10 11 12 14 14 14 14 15 15 15 15 15 14 14 15 15 16 16 17 17 17 17 17 17 18 18 18 19 19 18 19 21 21 22 22 22 22 21 21 21 22 22 22 21 21 20 20 20 20 21 22 23 24 24 24 25 24 24 24 24 25 25 26 26 26 26 26 26 26 26 26 26 26 26 26 27 27 26 26 24 23 23 22 22 22 22 22
10 11 13 15 15 15 14 15 15 15 15 15 14 14 14 15 15 16 16 17 17 17 17 17 18 18 18 19 19 19 19 20 21 22 22 22 22 22 22 22 22 22 22 22 21 21 21 20 21 22 22 23 23 24 24 25 25 25 25 25 25 25 25 26 26 26 27 26 26 26 26 26 27 27 26 26 26 26 26 26 24 23 23 23 22 22 22 21
11 13 15 15 15 15 15 15 15 15 15 14 14 14 15 15 16 16 17 17 17 17 18 18 18 18 19 19 19 19 20 20 21 22 22 22 22 22 22 22 22 22 22 22 21 21 21 21 22 23 24 24 24 24 24 25 25 25 25 25 25 26 26 26 26 26 26 26 26 26 26 26 27 26 26 27 27 26 27 25 24 23 23 23 22 23 23 22
13 14 15 16 15 15 15 16 15 15 15 15 14 14 15 15 16 16 17 18 18 18 18 18 18 19 19 19 19 19 19 20 22 23 22 22 22 22 22 23 22 22 22 21 21 21 21 22 23 23 24 24 24 24 25 25 25 24 25 25 26 26 26 26 26 26 26 26 26 26 26 26 26 26 26 27 27 28 27 25 23 22 22 22 22 23 23 22
14 15 15 16 16 16 16 16 16 15 15 15 14 14 15 16 16 16 17 18 18 18 18 18 19 19 20 19 19 19 19 21 23 23 23 23 23 23 23 23 22 22 22 21 21 21 22 23 24 24 23 23 24 24 25 25 25 25 25 26 26 26 26 26 26 26 26 26 27 27 26 26 25 26 26 27 27 28 27 24 23 23 23 23 23 23 23 22
15 15 16 16 16 16 16 16 16 15 15 15 15 15 15 16 16 17 17 18 18 18 18 19 19 19 20 19 19 20 21 22 23 23 23 23 23 23 23 23 23 22 22 22 22 22 23 24 24 24 23 23 24 24 25 25 24 25 25 25 26 26 26 26 26 26 26 26 26 26 26 26 25 25 26 27 27 26 25 24 23 23 24 24 24 24 24 24
16 16 16 16 16 16 16 16 16 16 15 15 15 15 16 16 17 17 17 18 18 18 18 19 19 19 20 19 19 21 23 23 23 23 24 24 24 23 23 23 23 23 23 23 23 23 23 24 23 24 24 23 23 24 25 25 24 25 25 26 26 25 26 26 26 26 26 26 26 26 26 26 25 25 26 27 26 25 25 25 24 24 24 24 25 25 23 23
16 16 17 16 16 16 16 16 16 16 16 15 16 16 16 17 17 17 18 18 18 18 19 19 19 19 19 19 20 21 23 24 23 23 24 24 24 23 23 24 24 24 24 24 24 24 24 24 24 24 24 23 23 24 25 25 25 26 26 26 25 25 25 26 26 26 26 26 26 26 26 25 25 25 25 26 25 25 25 24 25 25 25 25 25 24 21 20
16 17 17 17 17 16 16 16 16 16 16 16 17 17 17 17 17 17 18 18 18 18 19 19 19 19 19 18 20 22 24 24 24 24 24 23 24 24 24 24 24 24 24 24 24 25 25 25 25 24 24 24 23 23 24 25 25 26 25 25 25 25 25 25 26 26 26 26 26 26 25 24 25 25 25 25 24 25 25 24 24 25 25 24 22 21 20 19
17 17 17 17 17 17 17 17 17 17 17 17 17 18 18 18 18 18 18 18 18 19 19 19 19 19 19 20 22 23 24 24 24 24 24 23 23 24 24 24 25 24 25 24 24 25 25 25 25 24 24 24 23 24 24 25 25 25 25 24 24 24 24 25 25 25 25 25 26 26 23 23 25 24 24 26 26 26 25 24 24 24 23 21 20 20 20 19
17 17 17 17 17 17 17 17 17 17 17 17 18 18 18 18 18 18 18 19 19 19 19 19 19 19 19 22 24 24 24 24 24 24 24 24 24 24 24 24 25 25 25 25 25 25 25 25 25 24 24 24 24 24 24 24 25 24 24 24 23 22 23 25 25 25 25 24 26 26 22 22 24 23 24 26 27 27 26 25 23 21 21 19 20 20 20 20
17 17 17 17 17 17 17 17 17 17 18 18 18 19 19 19 19 19 19 19 19 19 20 20 19 19 20 22 23 24 24 24 24 24 25 25 24 24 24 25 25 25 25 25 25 25 25 25 24 24 24 24 24 23 23 23 24 24 22 22 22 21 22 24 25 24 25 25 25 25 22 22 24 23 23 24 26 27 24 23 21 20 20 20 20 19 19 20
17 17 17 18 18 18 17 18 18 18 18 19 19 19 19 19 20 20 20 20 20 20 20 20 19 19 20 21 23 24 24 24 24 25 25 25 25 25 25 25 25 25 25 25 25 25 25 25 24 23 23 24 23 23 22 22 22 23 21 21 21 21 22 23 24 24 26 25 25 25 22 22 22 22 22 22 22 23 21 20 20 20 20 20 20 19 19 19
17 17 18 18 18 18 18 18 18 19 19 19 20 20 20 20 21 21 21 20 20 20 20 19 19 19 20 22 23 23 24 24 25 25 25 25 25 25 25 25 24 24 25 25 25 24 24 24 24 23 23 23 23 22 21 20 20 21 21 21 21 21 22 22 23 24 25 25 24 23 21 21 21 20 21 21 20 20 20 19 20 20 20 20 20 19 19 19
16 17 18 18 18 19 19 18 18 19 20 20 20 21 21 21 21 21 21 21 20 20 19 19 19 19 21 22 23 24 24 25 25 25 25 25 25 25 25 25 24 24 24 24 24 24 23 24 23 23 23 22 22 22 21 20 20 21 21 21 21 21 22 22 23 24 25 25 22 21 20 20 20 20 20 20 20 19 19 19 19 19 19 19 19 19 19 19
16 17 18 18 18 19 19 19 19 19 20 20 21 21 21 21 21 21 21 20 20 20 20 20 20 20 21 23 23 24 25 25 25 25 25 25 25 25 25 25 24 24 23 23 23 23 23 23 22 22 22 22 22 22 21 22 22 22 22 21 21 21 21 22 23 24 24 23 21 20 20 20 20 20 20 20 20 19 19 19 19 19 19 18 19 19 19 19
16 17 18 18 19 19 19 19 19 20 20 20 21 21 20 19 20 20 20 20 20 21 21 21 21 21 22 24 24 25 25 25 25 25 25 25 25 25 24 24 24 23 23 22 22 23 23 22 21 21 22 22 23 23 23 23 23 23 23 21 21 21 21 22 23 23 24 22 20 20 19 19 20 20 20 20 19 19 19 19 18 18 18 18 18 18 18 19
16 17 18 18 19 19 19 19 19 19 19 20 20 20 19 18 18 19 19 19 20 20 20 21 21 21 23 25 25 25 25 24 24 24 25 25 25 24 23 23 23 22 22 22 22 22 22 22 21 22 22 23 24 24 24 24 23 23 22 21 21 21 21 22 22 23 23 21 19 19 19 19 19 20 20 20 19 19 19 18 18 18 18 18 18 18 18 18
16 17 17 18 19 19 19 19 19 19 19 20 20 19 19 19 19 19 19 19 19 20 20 21 22 22 24 25 25 25 24 23 24 24 25 25 24 23 23 23 22 21 22 22 22 22 22 22 22 23 23 23 24 24 24 23 22 22 22 21 21 21 21 22 22 22 22 21 19 19 19 18 19 19 20 20 19 19 19 18 18 18 18 18 18 18 17 17
16 17 17 18 19 19 19 20 19 19 19 19 19 19 19 19 19 20 19 18 19 21 22 23 23 23 24 24 24 25 24 23 23 23 25 25 24 23 23 22 21 22 22 22 22 21 21 22 23 24 24 24 23 23 23 22 22 22 22 21 20 21 21 21 22 21 21 21 20 19 19 18 18 19 19 19 19 19 19 18 18 18 17 17 17 17 17 17
16 17 17 18 19 19 19 20 19 19 19 19 19 19 19 19 19 19 19 19 19 21 23 23 23 23 23 23 24 24 23 23 23 23 25 24 23 23 23 22 22 22 22 22 23 22 21 23 24 24 24 23 23 22 22 22 21 21 21 21 21 21 21 21 22 21 20 20 19 19 20 18 18 18 19 19 19 18 18 18 17 17 17 17 17 17 17 16
16 16 17 18 19 19 20 20 19 19 19 19 19 19 19 19 19 19 19 19 19 21 23 23 23 23 23 24 24 24 23 24 24 24 25 24 24 23 23 23 22 22 22 22 23 22 22 23 23 23 23 23 23 22 22 22 21 21 21 22 22 22 22 22 22 21 20 20 19 19 19 18 18 18 18 19 18 18 18 17 17 17 17 17 16 16 16 16
16 16 17 18 18 19 20 20 19 18 19 19 19 19 19 19 19 19 19 19 19 21 22 23 23 23 23 24 24 24 23 23 24 24 24 25 24 24 23 23 22 22 22 23 22 22 22 22 23 22 22 22 22 22 22 22 21 20 21 22 22 22 22 21 21 20 20 19 18 19 19 17 17 18 18 18 18 17 17 17 16 16 16 16 16 16 16 16
16 17 17 18 18 19 19 19 18 18 18 18 19 19 19 19 19 19 19 18 19 20 21 22 23 23 23 24 24 23 22 22 23 24 24 24 24 24 23 22 22 22 22 22 21 21 22 22 22 22 22 22 21 21 22 22 21 21 22 23 22 22 21 20 20 19 18 18 18 18 19 17 16 18 18 18 17 16 16 16 16 16 16 16 16 16 16 16
17 17 17 18 18 18 18 18 17 18 18 18 19 19 19 19 19 19 19 18 19 21 21 22 23 23 23 23 23 23 22 22 23 23 24 25 24 24 22 22 22 21 21 21 20 21 22 22 22 22 21 21 21 21 22 22 21 22 23 23 22 21 21 20 20 19 18 18 18 17 18 17 16 18 18 18 17 16 16 16 16 16 16 16 16 16 16 16
17 17 18 18 18 18 17 17 17 18 19 19 19 19 20 20 19 19 19 18 19 21 21 21 23 22 22 22 23 23 23 23 23 23 24 24 24 23 22 22 22 21 20 20 20 20 21 22 22 22 21 21 22 22 22 22 21 22 23 22 21 20 20 20 19 19 18 18 18 17 18 17 15 17 18 17 17 16 15 16 16 16 16 16 16 16 17 16
18 18 18 18 19 18 18 18 18 18 19 18 19 20 20 20 19 18 17 18 19 20 21 21 22 21 21 21 22 22 22 23 23 24 24 23 23 23 22 22 22 21 19 19 20 20 20 22 23 22 22 22 23 23 22 22 21 22 22 21 20 19 19 19 18 18 18 18 17 17 17 17 16 17 18 17 17 16 16 16 16 16 16 16 16 17 17 16
19 18 18 19 19 19 18 18 19 19 18 18 19 20 20 19 19 18 17 18 20 19 20 21 20 21 21 20 20 21 22 22 23 23 23 23 22 22 22 21 21 20 18 19 20 19 20 22 22 22 22 22 23 22 22 21 21 21 21 20 20 19 19 19 18 18 18 17 17 17 17 17 16 16 17 17 17 17 17 17 16 17 16 16 16 16 16 16
19 19 19 19 19 19 18 19 19 18 18 18 18 19 20 19 18 17 18 19 19 18 19 20 20 20 20 20 20 21 22 22 22 22 22 22 21 21 21 20 20 19 18 17 18 19 20 21 20 21 22 22 22 21 21 21 21 21 20 19 19 18 18 18 18 17 17 17 17 17 17 17 16 17 17 17 17 17 17 17 17 17 16 16 16 16 16 15
19 19 19 20 20 19 19 19 19 18 18 18 18 19 19 18 17 17 18 18 18 18 19 19 19 20 20 20 20 21 21 21 22 22 22 21 21 20 20 20 20 19 18 17 17 18 20 20 20 21 21 21 21 20 20 20 20 20 20 20 19 18 17 17 17 17 17 17 17 17 17 16 16 17 17 17 17 17 17 17 17 17 17 17 16 16 15 15
20 20 20 20 20 20 20 19 19 18 18 18 19 19 19 17 17 18 18 17 18 19 19 19 19 19 20 20 20 21 21 21 22 22 21 21 21 20 19 20 20 19 18 17 17 17 18 19 19 20 20 20 20 20 21 20 20 21 20 19 19 19 18 17 17 17 16 16 17 17 17 16 16 17 17 17 17 17 17 18 17 17 17 16 16 15 15 15
20 20 20 20 21 21 20 20 19 18 17 18 19 19 18 17 17 17 17 17 18 19 19 18 18 19 20 20 20 21 21 21 21 21 21 20 20 20 20 20 20 19 18 18 17 17 17 17 19 19 20 20 20 21 22 21 20 20 19 19 19 19 19 18 17 17 17 16 16 17 16 16 17 18 17 17 17 17 17 17 17 17 16 16 16 15 15 15
20 21 21 21 21 21 21 20 19 18 17 19 19 17 17 17 17 17 17 18 18 18 18 18 19 19 19 20 20 20 21 21 21 21 20 20 20 20 20 20 19 19 19 18 17 17 17 17 19 19 20 21 20 20 21 21 20 20 19 20 20 20 20 18 17 16 17 16 16 16 16 16 17 17 17 17 17 17 16 17 17 17 16 16 15 15 15 15
20 20 20 20 21 21 21 20 20 19 18 19 19 17 17 18 18 18 18 18 18 18 18 17 18 19 18 19 19 20 20 21 21 20 20 20 19 19 19 19 19 19 20 19 18 17 17 17 19 19 20 21 21 21 21 21 20 20 19 20 20 19 19 19 17 16 16 16 16 16 16 16 16 16 17 17 17 16 16 17 16 16 16 15 15 15 15 15
18 18 18 20 21 21 21 20 20 19 19 19 18 18 18 18 18 18 18 18 18 18 17 16 17 18 17 18 19 19 20 20 20 20 19 19 19 19 19 19 19 19 19 20 19 18 17 17 18 19 20 20 21 21 20 20 20 19 19 20 20 19 19 18 18 17 16 15 15 15 15 15 16 16 17 17 17 17 17 16 16 15 15 15 15 15 15 15
16 17 19 21 21 20 21 20 19 18 19 19 17 18 18 18 18 18 18 18 18 18 17 16 17 18 17 18 18 18 19 19 19 20 19 19 19 18 18 19 19 19 19 20 19 18 17 17 18 19 19 19 20 19 18 18 19 20 20 20 19 19 18 18 18 17 17 16 14 15 15 15 16 17 17 17 17 17 17 16 16 15 15 15 15 15 15 15
15 17 20 21 21 20 21 20 19 19 19 18 17 18 18 18 18 18 18 19 18 18 17 17 17 17 17 18 18 18 19 18 19 19 19 19 18 18 18 19 20 19 19 19 18 17 17 17 17 18 19 19 18 17 17 17 18 19 19 18 18 19 18 18 17 17 17 17 15 14 14 15 17 18 17 17 17 17 17 17 16 15 15 15 15 15 15 15
14 17 20 21 21 20 20 20 19 19 18 18 18 18 18 18 18 18 18 19 18 18 18 18 17 17 17 18 18 18 18 18 19 19 19 18 18 18 18 19 19 19 18 19 18 17 17 17 17 17 18 18 17 17 17 17 18 18 18 18 18 18 18 17 17 16 17 17 16 15 14 15 17 18 17 18 18 17 17 17 16 15 15 15 15 15 15 14
15 18 20 21 21 20 20 19 18 18 18 18 18 18 18 18 18 18 18 18 18 18 18 18 18 17 18 18 18 18 18 18 19 18 18 18 18 18 19 19 19 19 18 18 17 17 17 16 16 17 17 17 17 17 17 17 18 18 18 18 18 17 17 17 16 16 16 16 16 15 15 16 17 18 17 18 18 17 16 17 16 15 15 15 15 15 14 14
16 18 20 21 21 20 20 19 18 18 18 18 18 18 19 18 18 18 18 18 18 18 18 18 18 17 18 18 18 18 18 18 18 18 18 18 18 18 19 18 18 18 18 17 16 17 17 16 16 16 16 17 18 18 18 17 18 18 18 18 18 17 18 17 16 16 16 16 16 15 15 16 17 17 17 18 18 16 16 16 16 15 15 15 15 15 14 14
13 14 17 20 21 21 20 18 18 18 17 18 18 18 18 18 17 17 17 17 18 18 17 18 18 17 17 18 18 18 18 18 18 18 18 18 18 18 18 18 18 18 17 17 17 17 17 16 16 16 16 16 17 18 18 18 18 18 18 18 18 18 18 17 16 16 16 15 15 15 15 16 17 17 17 17 17 16 16 16 15 15 15 15 15 14 14 14
12 14 16 18 20 20 19 18 18 18 17 17 17 17 17 17 17 17 17 17 18 18 17 17 18 17 17 18 18 18 18 18 17 18 19 18 18 18 18 18 18 18 17 18 17 17 17 16 16 16 15 15 15 16 16 17 17 17 17 18 18 18 18 17 16 16 16 15 15 15 15 16 16 17 17 17 16 16 16 15 15 15 15 15 15 14 14 14
15 17 17 18 19 19 19 18 18 18 18 17 17 17 17 17 17 17 17 17 17 18 17 17 18 18 17 17 17 17 17 17 17 18 18 17 18 18 18 18 18 18 18 18 18 17 16 16 16 16 16 15 16 16 17 16 16 17 17 18 18 17 17 17 16 15 15 15 15 15 15 15 16 17 17 16 17 16 15 15 14 15 15 15 15 14 14 14
15 17 17 17 18 18 18 18 18 18 18 17 17 17 17 17 16 17 17 17 17 18 17 17 17 17 17 17 17 16 17 17 17 17 17 17 17 18 17 17 18 18 18 18 18 17 16 16 16 16 16 16 16 17 17 17 16 17 17 17 17 17 17 17 16 16 15 15 15 15 15 15 16 17 16 16 16 16 16 15 15 15 15 15 14 14 14 14
15 17 17 17 17 17 17 18 19 18 18 17 17 17 17 17 16 16 17 17 17 17 17 17 17 17 17 17 16 16 16 16 16 16 16 17 17 17 17 17 17 18 18 18 17 17 16 16 16 16 16 17 16 17 17 17 17 17 17 17 17 17 17 17 17 16 16 15 16 16 15 15 16 17 16 16 17 17 17 16 15 15 15 15 14 14 14 14
15 16 16 16 17 17 17 18 18 18 18 18 17 17 17 17 17 17 17 17 17 17 17 16 17 17 17 17 17 16 16 16 16 16 17 17 16 17 17 17 17 18 17 17 17 16 16 16 16 16 16 17 17 17 17 16 16 17 17 17 17 17 17 17 17 16 16 16 16 16 16 16 17 16 16 17 17 16 16 15 15 14 14 14 14 14 14 14
14 14 15 15 16 17 17 18 18 18 18 17 17 17 17 17 17 17 17 17 17 17 17 16 16 17 17 17 17 16 16 16 16 16 16 16 16 17 17 17 17 17 17 17 17 16 16 16 16 16 16 16 17 17 16 16 16 16 17 17 17 17 17 16 16 16 16 16 16 16 16 16 16 16 16 17 16 15 15 15 14 14 14 14 14 14 14 14
12 13 13 14 16 17 17 17 17 17 17 16 17 18 17 17 17 17 17 17 17 17 16 16 16 17 17 17 17 16 17 17 16 16 17 16 16 17 17 17 17 17 17 17 17 16 16 16 16 16 15 15 17 16 15 16 16 16 17 17 16 16 16 16 16 16 16 16 16 15 15 16 16 16 16 15 15 15 15 14 14 14 14 14 14 14 14 13
11 12 12 14 16 16 16 17 17 16 17 17 17 18 17 17 17 17 17 17 17 17 17 16 16 16 16 16 17 17 17 17 17 17 17 17 17 17 17 17 17 17 17 17 17 16 16 16 16 15 15 15 16 15 15 16 16 16 17 17 17 16 16 16 16 16 16 16 16 15 16 17 16 16 16 15 15 15 14 14 14 14 14 14 14 14 13 13
Height
824 822 820 819 817 816 815 814 813 812 811 810 808 807 806 805 803 802 802 800 800 799 799 798 798 798 798 797 797 797 796 796 796 795 794 792 791 791 791 791 790 791 791 791 791 791 791 791 791 791 792 793 794 793 792 792 792 798 806 815 820 818 815 807 803 802 801 801 797 793 790 791 791 785 776 773 775 780 782 779 775 772 771 773 772 775 779 783
824 822 820 818 817 816 815 814 813 812 811 809 808 807 806 804 803 802 801 800 800 799 799 798 798 798 798 798 797 797 797 796 796 795 793 791 790 791 790 790 791 791 791 791 791 792 793 793 792 792 794 795 794 792 793 792 792 800 806 814 816 811 804 797 798 798 797 800 796 791 791 790 792 789 780 781 785 783 787 788 783 781 780 779 779 782 784 786
823 821 820 818 817 815 815 814 813 812 810 809 808 806 805 804 803 802 801 800 800 799 799 798 798 798 798 798 797 797 796 795 795 794 791 790 790 790 790 790 790 791 791 791 791 792 793 793 793 795 796 796 794 793 795 793 794 798 804 814 809 800 798 794 795 795 794 795 795 793 790 789 790 787 783 786 788 785 790 793 790 791 790 787 785 784 785 787
823 821 820 818 817 816 814 813 812 811 810 809 807 806 805 803 802 801 801 800 800 800 799 799 798 798 798 798 798 797 795 796 795 792 791 790 790 790 790 790 790 791 791 791 791 791 791 792 793 795 797 798 795 794 797 794 794 797 800 807 800 794 798 795 792 792 790 791 794 794 791 790 788 786 787 788 790 791 791 792 791 792 791 790 788 785 786 787
823 821 820 818 817 815 814 813 812 811 810 808 807 805 804 803 802 801 800 800 800 800 799 799 799 798 799 797 798 796 796 802 798 791 791 790 790 790 790 790 791 791 790 790 790 790 791 790 791 792 794 796 795 796 797 792 791 796 796 795 792 793 797 793 790 790 788 790 792 793 793 792 787 787 790 790 794 795 791 789 788 787 787 787 787 785 786 787
823 821 820 818 817 816 814 813 812 810 809 808 806 805 804 803 802 801 800 800 800 800 799 799 799 798 798 797 798 796 799 805 797 790 791 790 790 790 789 790 790 790 790 790 790 790 790 789 790 792 792 794 795 795 794 789 789 796 795 790 790 791 793 791 789 789 787 789 792 792 791 790 789 791 790 789 792 790 787 788 787 786 785 785 786 786 787 789
824 822 820 818 817 816 814 813 811 810 809 807 806 804 803 802 801 801 800 800 800 800 799 799 799 798 798 797 797 796 799 800 792 790 791 789 790 789 790 790 790 790 789 789 790 790 790 790 791 792 793 794 795 793 791 787 787 795 796 791 789 789 790 789 788 788 787 788 789 788 789 790 793 794 790 790 789 785 785 787 787 787 787 787 789 789 789 790
823 822 820 818 817 815 814 812 811 809 808 807 805 804 803 802 801 801 800 800 800 800 800 799 799 798 798 797 797 798 799 795 790 791 790 790 790 789 790 789 789 790 788 788 789 789 790 791 791 790 795 795 793 792 789 788 789 792 793 790 788 788 788 787 786 787 787 787 786 786 790 792 793 792 792 791 787 785 787 789 790 789 789 791 792 793 792 792
824 822 820 819 817 815 813 812 810 809 807 806 805 804 803 802 801 801 800 800 800 800 800 799 799 798 797 796 797 800 797 791 789 790 790 790 790 789 789 788 788 788 788 788 787 788 789 790 790 790 794 794 792 791 788 791 795 790 790 789 787 787 786 786 787 787 787 786 785 788 791 790 789 791 794 790 788 788 788 791 792 791 792 794 794 794 794 794
824 822 820 818 816 815 813 811 810 808 807 805 804 803 802 802 801 801 800 800 800 800 799 799 798 797 797 796 798 801 794 789 790 790 789 790 789 789 789 787 788 787 788 787 786 787 787 788 788 786 789 791 791 791 788 791 793 787 787 787 787 788 786 786 787 787 787 785 785 790 793 791 788 793 798 791 788 790 789 792 793 792 795 794 794 794 794 795
824 822 820 818 816 815 812 811 809 807 806 805 803 803 802 801 801 800 800 800 800 800 799 799 798 798 797 796 800 799 791 789 790 789 789 789 788 788 788 787 787 787 788 787 786 785 785 786 784 784 789 791 791 791 788 788 788 785 786 787 787 789 788 787 788 787 787 787 786 788 792 792 790 794 797 792 790 790 791 794 793 793 795 794 796 797 797 798
824 822 820 818 816 814 812 811 809 807 805 804 803 802 801 801 801 800 800 800 800 800 799 798 798 797 796 797 798 795 789 789 789 788 789 788 789 788 787 788 787 787 787 786 786 785 785 784 783 788 791 791 792 794 789 784 786 786 786 792 792 790 791 789 789 788 788 790 786 787 797 798 795 797 795 792 791 790 793 796 796 795 796 797 800 800 800 800
824 822 820 819 816 814 812 810 808 807 805 803 802 801 801 801 800 800 800 800 800 800 799 798 798 797 797 797 794 790 789 789 788 788 788 788 789 788 787 788 787 787 786 786 786 784 785 784 784 788 788 790 794 792 787 783 786 788 789 794 798 799 797 790 789 789 790 792 786 791 809 807 798 798 793 789 788 789 794 796 797 798 799 802 802 801 803 803
824 822 820 818 816 814 812 810 808 806 804 803 802 801 801 800 800 800 800 800 800 799 799 798 798 796 797 796 789 789 789 788 789 788 788 788 788 788 787 787 786 786 786 786 785 785 785 784 784 786 786 789 790 787 788 789 789 793 796 798 804 812 805 790 788 792 793 793 787 793 814 811 799 798 793 787 786 787 793 796 799 802 803 805 804 804 807 807
825 822 820 818 816 814 812 810 808 806 804 803 802 801 800 800 800 799 800 800 799 799 799 798 797 797 798 795 789 788 789 788 789 787 787 788 787 787 786 786 786 786 786 785 785 785 785 784 786 789 790 787 788 793 798 798 795 797 806 809 810 814 807 794 790 792 793 794 789 796 814 813 803 802 797 792 790 789 797 803 806 807 805 807 808 809 810 810
825 822 820 818 816 814 812 810 808 806 804 802 801 800 800 799 799 799 800 799 799 799 798 798 797 798 802 798 790 789 789 788 788 787 787 787 786 786 785 786 786 786 786 785 785 785 785 785 787 790 791 790 794 801 805 808 807 805 811 815 812 812 809 802 794 790 791 793 794 799 814 818 811 806 801 800 800 798 806 812 812 811 809 810 812 812 812 812
825 822 820 818 816 814 812 810 808 806 804 802 800 799 798 798 798 798 799 799 799 798 798 799 797 798 800 794 791 792 789 787 787 786 786 786 786 785 785 785 785 786 785 784 785 786 786 788 790 791 793 796 799 804 814 823 820 814 814 814 813 811 809 806 800 794 790 794 801 806 815 822 818 812 807 808 807 805 811 816 815 815 815 815 814 814 814 814
825 822 820 818 816 814 812 810 808 806 805 802 800 799 798 797 798 798 798 799 798 798 799 799 798 804 804 794 792 792 787 787 786 786 787 786 786 785 785 785 785 786 787 788 788 789 791 792 794 798 800 802 803 808 821 826 820 817 816 815 816 812 809 810 805 798 793 797 810 816 820 823 820 817 814 813 810 810 815 819 819 819 820 821 818 817 817 816
825 822 820 817 816 814 812 811 809 807 805 802 801 799 797 796 797 797 798 798 799 801 803 801 800 807 806 795 790 788 786 786 786 786 786 786 786 785 785 785 786 788 793 796 794 792 794 797 801 806 808 807 806 807 812 813 810 811 810 813 818 815 813 811 805 799 796 805 818 823 825 824 821 820 818 816 813 815 819 820 823 825 825 825 823 822 821 820
825 822 820 817 816 814 812 811 809 808 806 804 801 799 800 803 804 803 799 798 800 800 801 801 799 801 798 791 788 787 786 786 786 786 786 786 786 786 786 786 788 791 796 799 798 794 795 804 809 809 808 805 802 801 800 800 802 804 806 811 817 817 815 810 805 800 796 810 826 825 826 827 823 822 821 818 817 819 822 824 827 828 828 827 825 825 825 824
825 822 820 817 815 814 812 811 810 809 807 806 803 803 807 810 813 813 806 801 797 795 797 796 795 797 793 788 787 786 787 788 787 785 786 786 786 790 792 790 794 798 797 796 798 796 798 808 809 804 803 799 796 795 795 797 801 803 807 812 815 816 815 810 807 803 797 812 829 823 825 831 827 825 823 819 820 823 826 828 830 830 830 829 827 827 827 826
825 822 820 817 815 814 812 811 811 809 808 808 806 807 809 810 812 811 810 809 800 793 795 792 791 794 789 787 787 786 789 793 791 787 786 786 787 793 795 794 800 802 795 795 801 803 806 809 803 797 797 794 794 795 796 801 803 806 808 811 815 815 815 811 807 807 803 813 828 823 825 835 832 827 825 822 824 826 827 828 830 830 830 831 830 829 829 828
825 822 820 817 815 814 812 811 811 809 809 809 808 809 810 809 809 808 809 813 807 795 792 792 792 793 790 789 787 786 792 796 796 792 786 786 789 792 794 797 801 799 795 797 802 808 812 807 797 793 793 794 798 800 801 804 806 808 809 813 817 815 816 817 812 811 808 813 824 823 825 835 834 830 828 826 826 827 828 828 829 830 831 833 832 831 831 831
825 822 820 817 814 813 812 812 811 810 810 809 810 810 810 810 809 808 809 812 811 799 791 791 791 792 793 791 788 790 794 794 795 793 787 787 791 791 794 797 799 800 799 797 798 805 809 801 793 792 793 797 802 804 805 809 811 812 810 813 817 814 814 817 812 811 814 817 822 822 829 837 837 836 833 829 828 829 830 830 830 831 831 832 832 832 833 833
824 823 820 816 815 813 811 812 811 811 810 809 810 810 810 810 808 808 809 814 816 804 793 792 792 793 792 790 790 791 794 794 793 791 787 787 790 793 794 795 799 804 802 798 798 803 805 797 793 796 798 799 803 806 806 809 814 816 811 808 811 811 812 812 811 814 822 828 825 824 838 847 840 836 836 831 831 833 832 831 832 832 831 831 832 833 833 833
824 822 820 817 815 813 812 812 811 811 810 809 810 809 809 808 807 808 810 819 822 809 800 798 797 796 793 792 791 789 798 800 791 788 787 787 788 791 797 798 799 803 800 796 798 802 803 797 796 801 804 804 807 808 805 805 815 820 811 803 805 808 811 814 814 820 830 835 829 824 836 850 845 836 836 833 834 835 834 833 834 832 831 831 832 832 832 832
824 822 820 818 816 814 813 813 813 812 811 811 809 808 808 806 807 806 812 831 832 813 806 803 798 798 795 793 791 795 808 806 793 790 787 787 787 788 799 803 802 803 797 798 807 806 802 800 801 803 806 809 812 813 806 804 814 817 806 801 804 807 814 817 817 825 833 833 833 828 830 847 851 839 834 835 837 839 838 837 836 833 833 833 833 833 833 833
824 821 819 818 816 816 815 814 814 812 812 811 808 808 807 805 807 807 820 843 835 811 808 805 797 797 795 793 792 797 803 800 800 797 785 786 789 790 800 804 804 806 800 804 817 812 802 804 805 805 810 813 812 810 805 804 812 810 800 801 805 807 813 816 818 828 834 832 840 839 831 847 856 841 833 836 839 844 843 840 839 836 835 835 834 833 833 833
823 821 819 817 816 816 815 815 813 812 812 810 808 808 806 805 807 810 827 842 828 810 810 806 799 799 797 796 796 797 797 796 801 797 786 788 790 791 801 802 800 806 804 807 817 814 806 804 802 803 811 812 807 803 800 804 809 802 798 803 808 812 814 816 822 830 835 837 844 844 835 848 858 844 837 840 842 846 845 841 840 837 836 835 834 833 833 833
822 820 819 817 816 815 815 814 812 812 811 808 808 806 804 807 811 824 842 840 824 816 811 806 806 806 804 804 803 801 799 798 797 793 791 793 792 793 798 798 799 807 812 810 811 813 808 800 798 802 806 805 802 801 799 802 804 798 801 809 814 819 819 822 828 830 838 844 843 842 837 844 856 848 839 840 841 842 841 841 839 836 835 835 834 833 833 834
821 820 818 816 815 815 814 813 812 812 810 808 808 804 805 812 819 838 849 832 821 821 813 811 812 808 808 813 813 806 802 801 797 797 799 798 798 801 801 804 807 812 821 819 814 814 808 803 805 803 801 801 801 802 801 801 801 802 808 814 820 827 826 828 833 834 845 848 840 839 838 841 852 849 840 839 837 835 836 838 838 836 835 835 834 834 834 834
820 819 817 815 815 814 814 813 812 811 810 807 807 805 810 822 832 841 839 826 827 829 820 818 817 811 812 815 815 810 806 805 801 800 803 804 807 810 809 814 816 821 832 833 828 822 813 810 812 805 801 803 805 808 807 803 803 806 813 819 827 837 838 840 843 843 848 847 838 838 839 843 850 844 838 838 835 834 834 834 835 835 835 835 834 835 835 835
819 817 816 814 814 813 813 812 811 811 810 807 808 808 815 833 844 840 833 831 833 828 820 819 818 815 816 816 814 810 808 808 804 802 804 806 812 815 814 814 814 822 834 837 836 831 822 816 813 810 807 804 808 815 817 815 812 812 815 821 829 839 847 852 851 850 851 847 840 837 840 849 851 841 835 836 834 833 832 831 832 833 834 834 834 835 836 835
818 816 814 813 812 812 811 812 811 811 810 808 809 813 824 841 844 836 835 835 829 822 820 822 820 817 816 817 815 810 811 811 805 805 808 809 815 819 819 817 813 818 827 834 838 838 838 831 820 817 815 809 810 813 814 816 816 814 813 818 825 832 841 848 848 847 851 852 845 841 845 852 851 840 833 832 832 831 830 830 832 832 833 834 834 835 835 835
817 815 813 811 811 811 810 811 811 810 811 809 812 822 836 846 843 837 839 835 828 825 823 821 822 821 820 817 813 809 812 813 807 808 812 814 818 820 820 819 816 818 824 834 838 837 843 839 821 815 814 810 813 809 803 810 817 816 814 818 824 824 828 839 842 842 846 852 851 848 848 846 840 834 831 831 832 832 832 833 833 833 833 834 835 835 835 834
816 813 812 811 811 810 810 810 810 810 811 811 819 833 840 840 838 836 835 830 829 830 828 825 823 826 827 821 817 813 809 811 811 813 816 817 819 819 818 819 817 817 820 830 837 837 842 837 819 814 813 808 810 808 803 810 818 818 818 821 820 815 819 833 844 843 843 850 853 850 849 844 838 836 833 832 834 834 835 834 833 833 834 835 835 835 834 834
815 813 812 811 810 810 809 810 809 810 811 813 824 835 835 832 831 830 829 827 828 828 832 836 829 828 833 829 824 820 813 813 813 816 821 821 821 821 819 819 818 816 816 822 832 835 838 837 823 817 817 808 804 806 804 806 811 819 823 819 815 816 819 827 841 847 848 853 854 851 850 849 847 846 838 835 838 837 836 834 834 835 835 835 835 834 833 833
816 814 813 811 810 810 809 809 809 810 812 818 828 831 829 830 828 826 825 825 827 827 834 842 835 829 834 834 830 823 819 821 819 819 823 823 824 824 821 821 818 817 815 815 825 830 833 838 828 817 818 812 804 807 813 809 807 814 817 812 815 826 829 830 838 846 850 857 859 854 853 852 849 845 839 837 839 837 835 836 835 836 835 834 834 833 832 833
817 816 814 811 810 810 810 810 809 810 815 824 833 832 828 829 827 824 824 823 826 830 834 840 837 832 833 833 832 827 823 826 824 822 824 824 826 824 821 821 819 817 815 813 823 828 829 839 836 821 817 816 813 819 829 825 813 810 812 812 817 824 829 832 835 839 844 853 861 860 858 853 843 837 836 836 836 834 834 835 835 835 835 834 833 832 832 832
817 818 815 810 810 811 810 810 811 813 821 828 832 830 827 828 827 824 822 822 825 829 833 836 836 836 833 831 832 829 825 827 825 824 825 825 827 826 821 820 819 819 818 817 823 828 829 837 839 828 819 821 827 830 833 832 825 820 822 825 824 822 826 831 833 836 839 845 856 862 862 852 838 832 833 834 832 832 832 832 832 834 834 833 832 831 831 833
819 821 817 810 811 812 810 812 815 818 824 828 829 828 826 826 826 825 822 821 823 825 827 831 833 835 834 832 831 829 827 827 825 825 826 825 828 829 823 819 819 820 821 821 825 828 830 835 839 836 830 830 833 829 825 827 827 825 828 830 829 827 829 836 840 839 837 840 848 855 858 849 834 829 831 829 828 829 830 829 831 834 834 833 832 831 832 833
822 822 816 809 811 811 811 817 820 821 825 828 827 826 824 824 826 826 823 822 824 824 824 827 830 832 832 831 830 829 829 829 827 828 829 828 828 827 822 818 819 819 821 826 828 826 827 834 839 839 836 833 830 825 824 825 822 822 825 826 828 829 832 839 845 842 839 842 844 846 852 846 832 827 829 826 825 828 829 828 830 834 834 831 830 830 832 832
824 821 812 808 810 810 814 823 825 824 826 826 823 823 822 824 827 827 825 826 827 827 827 827 828 830 830 829 829 829 830 830 828 828 829 829 827 824 821 819 819 821 823 829 830 825 827 835 839 839 836 831 826 822 822 822 820 823 825 823 825 829 829 833 839 840 841 844 843 846 852 845 831 827 828 825 825 828 829 827 829 833 833 830 829 830 831 831
828 823 814 810 809 810 816 825 828 828 828 825 825 825 824 825 826 827 828 828 828 828 830 829 828 830 830 827 828 829 830 832 831 827 827 830 826 822 822 820 820 823 825 827 828 827 830 838 841 843 844 841 836 833 829 826 825 828 828 824 824 826 827 830 835 839 842 845 845 847 851 844 832 828 828 827 827 828 828 828 829 831 831 829 829 829 830 830
828 824 818 813 809 811 817 822 824 827 828 828 829 829 827 827 827 827 828 828 827 828 830 830 828 829 829 827 828 828 828 832 834 828 825 828 826 822 823 821 820 823 823 823 824 825 831 837 839 844 850 851 850 846 840 835 832 832 830 826 824 826 827 831 836 841 844 846 846 846 846 841 832 828 828 828 828 828 829 829 830 830 829 828 828 829 829 828
827 824 822 818 813 814 818 818 819 824 826 828 830 829 829 830 828 826 826 827 826 826 828 829 827 828 830 830 831 832 830 830 832 829 828 830 828 825 824 823 823 823 822 821 822 825 833 837 837 840 844 845 844 839 834 834 835 834 831 827 827 828 828 831 839 843 843 845 846 842 841 840 833 829 829 828 827 828 829 831 830 829 828 827 827 828 828 827
829 827 826 826 823 821 821 820 820 823 824 827 829 828 829 831 831 828 827 827 826 825 827 828 828 831 834 834 835 837 834 831 831 832 833 832 829 826 825 824 825 824 822 822 823 827 835 838 837 838 838 837 836 832 829 831 833 832 830 828 827 828 828 831 836 837 838 844 845 839 838 840 833 827 829 829 827 827 828 828 829 827 826 826 827 827 827 826
828 826 825 826 828 828 827 824 821 822 824 825 826 827 828 830 832 831 829 827 826 826 828 831 831 831 833 833 835 837 837 836 836 835 835 833 830 830 829 827 826 824 823 825 824 827 836 839 837 837 836 833 832 830 829 830 830 828 828 827 825 825 827 830 831 831 834 839 838 834 835 835 829 826 828 827 824 824 824 825 826 826 826 826 826 826 826 825
828 827 825 824 827 828 827 824 821 822 823 824 826 827 827 828 830 829 827 828 829 827 828 833 833 830 830 830 833 837 838 839 840 837 833 833 833 833 832 832 828 825 826 828 827 828 835 837 835 836 836 832 829 829 828 829 830 827 825 824 823 822 823 825 826 827 829 830 829 829 832 830 825 825 825 822 822 824 824 825 826 827 827 826 825 825 825 825
831 831 829 828 827 825 824 822 822 824 825 826 827 826 825 826 828 827 825 827 831 829 828 833 833 830 829 829 830 834 835 835 838 837 833 833 834 832 832 832 829 827 828 829 829 831 834 836 835 835 837 834 828 827 829 830 829 827 823 822 823 823 824 826 826 826 827 829 827 828 830 827 824 823 822 821 823 824 824 826 827 827 826 825 825 826 825 825
833 831 831 831 829 825 824 824 823 826 827 827 827 824 824 826 826 826 825 824 826 828 829 832 832 829 829 830 831 832 831 829 832 831 829 830 832 830 830 829 828 829 830 829 830 831 833 836 836 836 842 838 829 830 833 828 826 827 824 821 823 824 825 825 823 822 822 825 828 830 830 826 822 821 822 824 825 824 825 827 826 825 825 825 825 825 825 825
833 831 830 830 830 827 826 825 824 827 827 825 824 822 822 824 822 823 827 826 825 826 826 828 829 830 832 832 830 829 827 826 825 825 824 825 825 825 826 826 825 827 829 828 829 830 831 834 836 838 844 839 831 833 835 830 831 831 822 816 817 819 821 822 821 819 818 820 825 828 825 821 819 820 823 825 825 824 825 826 824 824 824 824 825 825 825 824
Wind_Speed
18 17 17 16 15 14 13 12 12 13 14 14 15 17 17 16 15 14 13 10 9 8 8 8 7 7 7 7 7 7 6 3 4 5 5 5 6 7 5 6 7 4 1 2 4 5 7 6 9 9 6 4 1 3 2 4 2 3 3 2 3 3 3 5 3 2 1 1 5 6 6 7 8 9 6 6 11 10 10 13 9 10 11 11 14 20 22 21
18 18 17 17 15 13 12 12 12 13 14 15 17 18 18 17 15 14 12 9 8 8 8 8 7 7 6 7 7 7 7 6 6 7 7 6 6 7 5 5 5 3 2 4 5 4 4 4 7 9 2 1 1 2 1 1 2 3 3 2 4 5 5 5 1 2 2 1 4 5 5 7 7 7 6 6 8 9 11 10 8 10 11 15 20 22 22 20
18 18 18 17 15 13 12 12 12 13 14 16 18 19 19 17 14 13 10 8 7 8 9 8 7 6 6 7 7 8 9 6 3 4 4 3 3 4 3 3 3 2 4 6 7 6 4 7 8 6 1 2 3 1 1 2 1 2 3 3 6 6 4 3 3 2 2 2 3 6 6 7 8 6 4 6 7 9 9 6 7 8 9 13 13 17 21 20
19 18 18 17 15 13 12 11 12 12 14 17 19 20 19 16 13 11 9 7 7 8 8 8 7 6 5 7 7 8 9 4 2 3 2 3 2 1 2 2 1 2 5 7 9 9 9 11 9 4 3 3 3 1 2 4 2 2 5 5 7 5 3 3 5 5 2 2 2 3 7 8 7 3 4 6 7 8 7 5 6 10 11 13 11 13 17 17
19 19 18 17 15 14 13 12 12 13 15 18 19 20 18 15 12 10 7 6 6 7 8 8 8 6 5 6 5 7 7 3 2 5 3 3 2 1 2 2 2 4 6 8 10 11 11 10 5 3 3 3 3 2 3 6 4 2 5 8 7 4 3 4 5 2 0 4 3 4 6 4 5 3 4 7 6 3 3 3 6 11 12 14 13 12 13 12
20 20 19 18 16 15 14 13 14 15 16 18 20 20 17 13 11 9 6 5 6 7 8 8 8 6 5 4 4 5 3 1 4 5 3 3 1 1 2 3 3 5 7 9 11 10 9 5 3 1 1 1 3 3 5 6 6 4 4 5 5 4 3 3 5 3 1 6 3 2 1 0 4 4 3 6 3 4 0 4 6 9 10 13 12 10 10 9
21 20 19 19 18 16 15 15 15 16 17 19 20 19 15 12 10 7 5 5 5 6 7 8 8 7 5 3 3 3 3 2 6 4 2 1 2 2 2 1 5 7 10 11 8 5 4 3 3 2 0 2 1 4 5 4 6 6 3 4 4 5 4 3 5 3 3 5 1 2 3 3 3 3 3 5 5 6 5 7 8 10 13 13 9 6 7 8
21 20 20 20 18 17 15 15 16 17 18 19 19 18 14 11 9 6 4 4 4 6 7 8 8 7 5 2 1 3 1 4 6 2 3 4 3 1 2 5 6 9 10 11 7 4 4 2 2 1 2 3 1 2 4 3 1 4 3 4 2 2 1 1 1 3 3 2 1 4 4 1 4 1 2 4 7 6 7 10 8 11 13 10 8 6 5 5
22 21 20 20 20 19 16 15 17 18 19 19 18 16 13 10 8 6 4 3 4 5 7 8 7 7 5 2 2 3 2 5 6 3 5 5 2 1 4 6 7 9 10 11 10 6 4 0 1 1 1 4 1 4 4 4 1 1 2 0 2 3 3 4 4 5 3 0 3 4 4 4 3 3 1 6 4 5 9 11 8 11 11 8 7 6 6 6
23 21 21 21 21 20 18 16 17 19 19 19 17 15 12 9 6 5 3 3 4 6 7 7 7 7 5 2 4 2 3 5 5 2 3 5 2 2 5 6 7 8 7 10 12 7 1 0 2 1 1 2 3 5 4 3 2 2 3 1 1 3 4 3 4 6 4 2 3 2 4 5 3 3 1 6 2 7 11 10 7 11 10 7 6 4 6 7
24 23 22 22 22 21 20 18 18 19 19 18 16 14 11 7 5 4 3 3 5 6 7 6 7 7 4 3 4 1 4 5 6 4 3 3 1 4 4 4 5 4 6 9 11 10 5 3 3 3 1 2 4 6 4 1 2 1 5 3 4 5 5 3 4 6 3 3 2 4 2 5 5 2 3 5 3 9 10 8 7 9 7 6 7 8 9 10
27 24 23 22 22 22 21 20 20 20 19 18 16 13 11 7 4 4 3 4 5 6 7 7 7 7 4 3 2 3 2 4 6 4 6 6 4 5 3 3 4 2 4 6 9 11 8 8 8 4 1 1 4 4 3 2 1 2 6 3 7 8 7 5 3 4 2 1 0 6 4 7 5 3 4 3 4 9 9 7 6 6 6 8 12 13 12 13
29 26 24 23 23 23 22 21 21 20 19 17 15 13 10 6 4 4 3 4 5 7 8 8 7 5 4 2 3 4 1 3 5 5 7 9 8 9 6 5 4 1 2 5 7 8 7 7 5 0 2 1 2 3 3 3 3 4 4 3 4 7 6 5 2 1 2 1 1 6 3 6 6 6 5 6 6 8 8 6 6 6 8 11 12 13 13 15
30 28 25 23 24 24 23 22 21 20 18 17 14 12 10 6 5 5 4 4 5 7 8 10 7 3 2 2 7 7 3 5 5 7 7 7 9 9 8 8 5 3 4 5 5 6 5 4 2 1 2 1 2 4 5 5 3 3 4 3 3 2 5 7 1 3 2 1 3 8 1 6 7 7 5 5 6 8 7 7 10 11 12 12 11 12 12 14
30 30 26 24 24 24 24 23 21 20 18 16 14 11 10 7 5 5 5 5 6 7 8 9 6 2 2 4 7 4 4 5 6 8 4 3 5 4 7 11 8 6 7 7 6 6 6 4 2 1 3 2 2 4 5 4 4 3 2 3 2 1 4 7 4 6 6 1 5 9 1 4 5 7 6 5 6 10 11 12 13 13 14 13 10 11 10 10
30 30 27 24 23 24 24 23 22 20 17 16 15 12 9 7 5 4 4 4 5 7 7 6 5 4 2 3 4 2 3 5 6 6 3 2 3 3 3 8 8 8 9 8 7 7 5 2 1 1 1 4 4 4 4 4 5 3 2 3 3 1 3 5 4 3 7 2 5 7 3 2 5 8 11 13 10 14 16 14 14 13 13 12 9 9 8 8
29 29 27 24 22 22 23 23 22 19 18 19 18 13 8 5 4 2 2 3 4 7 5 3 3 3 1 4 4 2 4 7 6 5 3 3 2 2 3 2 3 6 8 6 6 5 3 1 1 1 2 3 2 4 4 3 4 4 2 1 3 2 1 2 3 2 3 4 6 8 7 3 4 9 15 13 12 18 17 13 13 12 11 9 8 9 8 8
30 29 28 24 21 21 22 22 21 19 19 20 17 13 9 4 3 2 3 3 5 5 3 3 2 3 2 4 4 3 4 6 4 2 3 5 3 5 6 3 3 4 3 4 3 1 1 3 2 3 4 4 3 5 3 2 3 2 2 1 3 3 4 4 1 2 2 6 8 9 8 5 6 11 13 12 14 17 14 12 12 11 9 8 8 9 8 9
30 29 28 25 21 20 20 21 20 18 19 19 15 12 11 7 3 3 6 6 3 1 2 2 1 2 3 4 5 3 1 2 2 1 4 7 5 7 8 5 3 2 2 2 3 1 1 3 3 2 3 3 1 4 6 5 4 1 1 2 2 3 3 3 2 3 3 9 9 9 7 6 8 10 10 11 13 15 13 11 10 8 8 7 8 8 8 8
29 29 28 25 21 19 19 19 18 17 18 19 16 11 8 7 4 3 7 6 2 4 4 3 3 3 5 4 2 1 1 3 3 2 3 8 6 4 5 4 2 2 1 2 4 3 4 3 1 3 4 4 2 3 4 2 1 1 2 4 4 5 2 3 4 6 3 8 5 7 10 8 8 9 8 9 12 13 12 11 9 8 7 7 8 8 9 8
29 29 29 26 21 18 18 17 17 16 14 16 16 8 3 3 2 2 6 5 6 7 7 8 9 9 8 3 0 2 2 2 4 3 3 6 3 2 4 4 2 2 3 4 2 3 4 3 4 4 7 5 1 3 4 5 4 3 3 4 4 4 1 3 3 6 4 7 1 8 14 10 8 8 7 9 12 11 9 9 8 8 8 7 9 10 10 8
29 29 29 27 21 17 16 15 15 15 13 15 14 6 2 4 3 3 3 3 7 6 7 10 8 8 7 4 2 4 4 2 5 5 4 3 3 1 3 3 2 4 5 2 3 4 3 2 5 3 4 1 5 7 7 6 3 4 3 3 2 1 0 3 3 5 6 5 1 7 13 6 5 6 6 8 9 8 8 9 8 8 9 8 9 10 9 9
28 28 29 27 21 17 14 12 13 14 13 12 13 7 4 8 7 6 3 0 6 6 4 5 2 2 2 4 4 7 5 2 3 3 4 3 4 0 0 4 4 3 4 1 5 3 2 4 5 1 4 6 6 5 6 5 4 3 3 4 1 3 1 1 3 4 8 5 2 7 9 4 5 5 5 6 6 7 8 9 8 8 8 7 7 8 8 9
27 28 28 26 20 16 11 8 12 14 9 7 10 10 7 7 7 7 3 1 3 6 4 3 3 1 2 4 5 6 3 1 1 2 3 4 2 1 2 4 5 5 5 1 6 5 1 5 3 4 7 5 2 4 6 5 4 3 1 4 2 2 1 2 2 3 7 5 3 6 6 3 4 4 4 4 5 7 6 8 9 7 7 7 7 7 8 8
27 27 27 25 19 15 9 5 12 16 7 5 9 11 8 7 8 7 3 2 3 5 3 4 4 2 5 6 3 2 1 3 1 2 2 4 2 2 2 2 2 4 7 3 6 5 1 4 3 7 7 5 4 3 3 5 3 4 2 4 5 3 3 3 1 3 5 3 2 4 4 3 5 4 4 3 5 7 6 8 9 8 8 8 8 9 8 8
27 27 27 24 17 14 8 2 12 16 5 4 11 14 10 7 8 5 2 4 3 4 3 3 2 4 7 5 2 4 4 3 3 1 1 1 2 2 2 3 1 3 6 3 4 2 2 5 6 7 6 6 5 2 1 4 5 2 3 4 4 4 2 1 1 3 3 2 4 1 4 2 4 3 4 2 7 7 7 9 9 8 9 9 8 8 8 9
26 26 26 22 16 14 7 2 11 11 2 5 16 18 10 6 6 2 3 5 2 4 3 2 2 4 5 4 2 4 2 4 4 2 2 1 2 3 3 3 2 3 4 3 3 1 2 6 8 8 7 6 5 3 3 3 6 2 5 3 4 6 6 4 5 4 2 2 4 4 5 3 2 2 4 2 7 7 8 8 8 8 8 8 8 8 8 8
26 26 25 20 15 11 7 7 9 7 3 10 19 17 7 4 4 1 5 4 2 2 1 2 3 3 4 5 3 3 3 3 1 4 4 1 1 4 3 2 2 5 5 6 3 4 2 5 4 6 7 4 2 3 4 1 3 4 6 3 4 6 7 6 7 4 1 3 3 4 3 4 2 3 4 3 6 6 6 6 6 7 7 7 7 7 7 6
25 27 24 19 14 9 9 9 7 6 8 14 20 14 5 4 4 4 5 2 2 2 1 2 4 4 5 6 4 2 2 1 2 4 4 2 1 5 3 2 2 5 6 6 3 3 2 1 2 5 5 1 3 5 5 2 3 6 2 3 4 5 5 6 6 3 3 4 2 4 2 4 2 4 3 2 4 3 2 2 3 4 5 5 5 6 6 6
24 26 23 18 13 8 10 10 5 7 10 15 19 12 4 4 4 5 3 0 1 2 2 2 2 3 5 7 5 6 3 0 1 2 4 3 4 5 2 1 5 5 5 5 3 3 5 3 1 3 2 4 4 4 4 3 4 3 3 5 6 5 4 4 3 3 4 2 4 5 3 5 1 4 3 1 2 4 4 1 1 3 5 5 4 5 5 5
23 24 21 16 12 8 9 8 5 7 9 15 18 9 2 4 4 5 1 1 1 3 3 3 2 3 5 4 2 5 3 3 3 3 3 3 5 5 3 3 5 4 5 6 5 6 7 4 2 3 2 1 2 2 3 4 3 4 4 4 4 3 4 4 4 4 3 2 4 4 3 5 2 4 2 3 4 5 5 4 3 4 4 3 2 3 4 4
23 22 18 13 11 9 8 5 5 8 10 15 14 4 4 4 4 2 0 1 1 2 3 2 3 4 4 3 1 3 2 3 3 2 1 1 3 3 3 2 1 3 4 3 4 6 5 2 3 5 4 5 5 3 5 6 6 6 4 5 4 2 3 2 2 2 2 3 3 5 4 3 1 3 4 5 5 5 5 5 5 5 3 1 1 2 3 3
23 21 17 11 10 11 9 6 6 7 11 14 8 4 6 4 2 2 1 2 1 3 2 2 4 5 3 3 2 2 2 2 3 3 2 2 3 4 4 2 4 5 1 0 2 4 4 3 5 6 4 5 5 3 3 4 5 5 2 4 4 2 2 0 2 1 1 3 2 4 5 1 2 2 5 7 6 6 6 6 6 6 5 4 3 3 3 2
24 20 14 11 10 9 7 5 5 6 10 10 4 5 6 4 0 2 2 2 2 2 2 2 5 6 3 1 3 1 3 3 3 3 3 3 3 3 3 2 3 5 3 2 2 2 2 2 3 2 2 4 4 1 1 0 2 3 0 4 4 3 3 3 2 2 3 1 2 3 3 2 3 3 5 6 6 6 5 5 5 5 5 4 3 3 2 2
23 18 11 9 8 6 4 3 3 3 6 5 5 5 5 2 1 1 1 3 2 3 5 3 2 3 4 3 3 1 2 1 3 4 3 2 2 1 1 1 1 4 4 3 0 1 2 3 6 3 4 3 4 4 1 2 2 3 1 4 2 3 4 2 2 4 4 2 1 1 1 3 3 2 3 5 4 5 5 4 4 4 4 3 3 2 1 0
23 17 7 6 7 3 2 2 2 1 2 4 6 4 3 2 2 2 1 2 1 3 5 6 3 3 4 4 4 4 2 1 2 3 3 2 2 1 2 1 2 3 4 3 1 0 2 4 7 4 4 3 1 4 2 3 1 1 2 1 3 4 6 4 0 0 4 3 1 0 1 1 1 1 2 4 3 3 3 4 5 5 3 4 3 3 2 2
23 17 7 5 6 1 3 2 4 3 3 5 5 3 2 2 2 3 2 1 0 1 4 4 2 1 2 3 3 6 3 2 2 2 1 1 2 3 2 3 4 3 4 4 1 2 3 2 7 4 4 5 2 4 3 2 4 2 1 3 2 2 4 4 2 3 4 2 2 0 2 1 1 0 1 4 2 2 4 6 4 3 3 4 2 3 3 3
19 14 7 5 1 3 3 3 4 4 4 5 4 3 2 1 0 2 1 0 1 3 5 1 2 1 2 1 3 5 3 2 3 1 0 0 1 3 2 2 4 4 2 4 2 1 3 1 6 4 4 6 4 6 4 4 3 3 2 2 2 3 1 2 2 1 1 1 1 1 1 1 2 2 1 3 4 6 6 6 4 3 3 4 3 4 4 4
12 6 4 2 4 2 3 2 4 3 5 4 2 2 2 1 1 2 2 2 3 3 3 0 1 2 2 1 1 4 3 2 3 1 1 1 0 2 2 1 2 4 4 5 4 1 3 3 4 5 4 4 4 5 3 5 5 3 3 3 3 3 3 1 1 2 3 2 1 0 2 2 3 4 4 5 6 6 6 6 5 5 5 4 4 4 4 3
5 2 2 2 3 1 1 3 2 4 4 2 1 1 1 2 2 3 1 3 3 2 1 0 0 1 2 2 1 3 2 3 3 1 0 0 1 1 2 1 1 1 5 6 4 1 2 3 2 6 6 3 2 1 0 2 3 3 4 4 3 1 1 1 1 1 3 3 3 2 1 3 4 3 5 7 7 6 6 5 5 5 5 5 5 4 4 3
3 2 2 1 1 3 1 3 2 3 3 1 1 1 0 2 0 4 3 3 3 2 2 2 1 0 1 2 2 3 3 3 3 3 1 1 2 1 2 0 2 1 3 5 3 1 1 2 1 3 4 2 3 3 1 2 3 3 2 1 0 0 2 3 1 3 1 3 3 4 3 5 4 3 4 6 6 5 5 6 6 5 5 5 6 4 2 2
3 1 4 2 2 4 1 4 2 1 4 1 1 1 1 2 1 3 4 4 2 0 1 2 1 0 1 1 1 3 3 2 2 3 2 0 1 2 1 1 1 1 3 2 1 1 3 3 3 1 3 3 6 4 1 2 2 4 2 1 3 2 3 5 2 3 2 2 0 3 2 4 5 3 4 5 5 4 5 6 6 5 5 6 6 3 1 4
2 3 5 6 2 3 4 4 3 3 3 2 1 1 1 2 1 1 2 4 2 2 2 1 1 1 1 1 1 2 3 1 1 1 1 2 2 2 2 2 2 3 4 1 2 1 1 3 3 2 4 3 5 4 3 3 4 4 1 1 3 2 2 5 4 3 1 2 1 3 0 4 5 4 4 5 3 2 2 5 7 5 5 6 5 3 2 5
1 4 5 7 3 2 3 2 1 1 0 1 3 2 2 1 1 1 2 2 1 1 1 1 1 2 1 1 1 1 1 1 1 1 1 0 1 2 2 3 3 3 2 2 2 0 0 1 2 2 3 5 5 6 6 6 4 1 3 3 2 3 4 2 1 3 2 2 3 4 2 5 5 4 3 3 2 5 3 4 7 6 5 5 4 2 2 5
3 2 4 6 4 2 2 3 4 3 1 3 3 1 1 2 1 2 2 0 1 2 1 2 1 1 2 1 3 2 1 3 1 2 1 1 1 1 1 3 5 3 2 4 3 2 2 2 3 4 3 1 1 2 2 2 2 1 2 3 1 3 4 2 1 3 0 2 3 4 4 5 5 5 5 5 2 6 3 3 5 5 5 5 3 1 3 4
2 1 3 6 6 4 2 0 4 4 2 3 2 1 2 1 2 0 2 1 1 2 2 1 1 3 3 4 4 3 2 2 2 1 3 2 1 1 2 4 4 0 2 2 3 4 3 1 2 5 5 4 5 6 5 3 1 3 4 4 2 1 4 4 3 1 3 2 1 3 5 2 6 5 5 5 1 4 4 5 5 5 5 4 1 2 4 3
1 1 0 2 3 3 4 3 4 4 2 3 2 1 2 2 1 2 2 0 1 2 2 1 2 3 1 2 3 2 3 5 4 2 3 3 2 2 2 4 3 1 2 3 3 4 4 2 1 4 5 5 7 7 5 3 3 5 5 5 4 2 3 5 3 4 4 4 2 6 5 3 6 6 4 3 3 3 5 6 6 6 5 3 1 2 1 2
0 0 1 2 1 0 1 2 1 4 2 3 3 0 1 2 3 1 1 1 1 2 2 2 3 1 3 1 2 1 3 5 4 2 2 2 2 2 3 3 3 2 2 2 2 4 5 0 3 2 3 6 5 5 5 4 4 5 6 7 6 5 5 6 5 5 6 5 5 6 6 5 6 5 5 6 5 5 6 4 5 4 3 2 2 3 2 3
1 1 1 1 1 2 3 4 1 4 2 1 1 1 2 2 2 3 2 2 1 1 3 1 4 5 4 2 4 1 1 1 2 3 2 2 2 2 2 2 5 3 1 1 2 2 4 1 4 1 2 6 6 6 6 4 5 6 7 9 8 7 7 7 6 6 7 6 6 6 6 7 6 5 7 7 6 5 2 2 4 4 3 3 4 4 3 4
2 1 2 3 3 2 3 2 2 3 1 0 0 2 3 4 3 2 1 4 1 3 2 2 4 5 3 2 4 2 4 4 3 5 2 2 3 1 0 2 2 2 2 1 1 2 3 2 3 2 3 6 6 4 5 6 5 7 8 7 6 6 6 6 5 5 5 4 4 5 4 5 5 5 5 3 1 1 3 5 5 3 3 4 5 3 3 4
5 4 2 1 2 3 2 2 2 1 1 0 2 3 1 3 5 3 0 2 4 3 3 4 2 2 2 3 3 3 6 4 5 7 6 3 2 3 3 2 2 1 2 1 1 1 2 1 2 4 3 6 5 5 7 8 6 4 7 7 5 6 5 5 4 5 6 5 4 4 2 5 5 3 1 3 3 4 4 5 4 3 3 5 4 3 3 4
7 5 3 1 1 2 2 2 2 2 1 2 3 4 2 3 5 4 2 2 2 5 5 7 5 2 3 3 2 5 7 5 6 7 6 5 5 5 5 4 3 2 2 2 1 1 3 2 0 2 1 5 6 5 5 6 6 4 6 7 7 7 4 2 2 5 6 6 6 5 5 6 4 3 3 1 2 5 5 4 3 3 3 3 2 2 3 4
Wind_Direction
360 359 357 357 357 358 1 3 4 3 2 359 358 356 351 349 345 346 349 351 355 358 6 7 10 23 30 23 15 15 10 352 318 313 295 267 255 267 262 242 258 280 305 291 318 339 339 331 323 321 311 311 198 216 225 183 164 88 145 168 215 229 220 223 222 251 206 333 318 334 9 28 1 338 338 7 15 12 37 49 46 50 62 63 81 113 117 117
360 359 358 358 358 0 5 6 4 2 0 358 358 355 353 352 348 351 354 359 5 5 12 14 21 29 29 19 9 5 351 325 304 281 274 277 262 261 242 228 246 257 255 283 312 329 341 311 317 338 339 231 268 225 259 227 152 135 142 148 218 220 216 224 198 13 8 291 311 345 13 28 8 332 341 21 4 11 45 45 47 61 66 69 79 91 95 100
360 359 359 0 1 3 7 4 1 360 359 357 355 354 355 354 352 356 358 5 11 12 17 19 24 27 26 14 3 356 343 332 318 270 274 304 257 245 215 221 247 255 262 280 301 292 272 266 286 321 276 224 270 206 245 279 206 177 127 144 232 223 233 269 104 129 235 246 341 350 8 26 3 342 355 20 10 14 41 51 65 76 81 88 89 90 95 99
360 0 1 3 4 5 4 360 358 356 356 354 354 355 355 355 357 359 2 9 15 19 21 22 22 24 22 8 2 350 344 0 347 261 274 345 293 223 166 200 232 243 265 283 298 297 290 277 264 238 199 230 261 154 185 244 240 190 144 188 232 196 233 264 148 172 211 84 61 5 21 12 340 0 15 19 26 8 15 42 99 120 114 109 107 104 111 114
2 2 2 4 6 4 359 356 354 353 352 353 354 354 355 357 359 2 6 11 19 23 23 24 21 25 19 1 354 341 352 40 299 266 280 340 333 216 158 156 191 232 263 289 295 302 304 287 259 210 186 201 219 157 210 224 187 196 203 211 220 161 229 235 159 186 87 85 76 61 42 350 322 13 17 30 40 337 346 34 107 129 127 125 125 127 130 127
3 4 4 5 4 1 357 355 352 350 350 352 354 353 355 358 359 4 6 12 26 24 23 22 21 27 10 348 338 337 27 87 269 275 302 330 342 172 125 146 208 248 268 286 295 303 307 306 338 316 234 189 202 194 241 232 180 204 253 227 219 181 219 216 160 219 148 94 72 86 103 302 7 355 346 30 2 278 355 83 96 109 112 117 121 128 134 135
5 5 6 5 4 360 356 355 352 350 349 351 352 352 355 357 0 3 0 14 29 24 21 18 18 22 5 347 342 12 91 229 256 264 330 41 117 115 90 256 257 271 278 283 290 299 301 330 337 273 161 348 239 220 263 264 182 180 242 264 230 176 188 204 172 190 134 117 154 113 86 91 56 320 340 5 300 297 21 64 89 99 98 100 103 115 135 145
8 7 6 6 4 0 356 352 351 350 349 350 351 352 353 355 358 359 0 10 23 23 20 20 19 13 8 11 7 31 62 230 221 187 92 108 114 81 319 303 286 277 282 283 273 255 268 322 322 37 51 308 249 247 285 358 97 164 183 262 277 125 157 327 50 35 59 149 143 53 25 211 180 182 356 300 280 315 37 64 77 90 88 85 92 104 122 142
11 9 7 6 4 2 357 351 352 350 349 351 351 352 353 353 355 358 2 2 15 20 17 23 19 12 14 36 93 49 292 212 182 138 99 110 98 16 288 312 317 292 288 296 294 273 255 255 312 73 89 268 346 338 311 48 27 211 123 286 355 12 352 22 24 5 355 218 104 60 330 288 208 135 307 268 285 1 69 85 83 85 81 78 90 112 123 120
11 9 8 6 4 3 358 353 352 351 352 353 352 354 353 353 354 355 359 2 12 14 15 23 17 19 24 40 73 61 255 193 176 178 112 101 72 269 269 301 312 300 303 315 325 328 311 106 286 255 156 279 346 329 320 78 203 239 78 66 18 3 337 24 359 317 320 342 84 77 294 297 311 104 250 281 4 65 78 82 81 88 94 106 109 108 98 78
11 10 8 6 5 3 0 356 353 353 355 355 355 356 356 355 352 351 359 2 7 11 11 13 11 12 15 71 82 170 213 188 195 213 214 167 172 256 263 291 281 293 322 324 332 341 2 21 11 41 47 339 333 316 323 65 217 203 71 5 327 5 345 346 329 307 344 352 27 72 333 319 352 84 223 286 57 95 88 71 68 86 101 107 88 61 53 50
12 10 8 6 5 2 1 359 355 356 356 357 357 356 357 356 347 342 350 2 9 12 2 1 8 358 356 68 137 236 212 208 213 217 239 214 217 270 263 268 261 286 319 301 315 334 354 360 21 53 260 320 347 325 320 352 349 38 71 20 324 1 346 308 293 297 35 345 52 86 16 338 343 292 258 246 121 102 91 79 73 84 88 72 67 63 53 50
11 10 8 6 4 2 2 1 359 358 358 358 359 359 358 352 339 326 338 3 4 3 357 355 353 338 9 41 258 306 349 226 224 231 252 231 237 267 250 239 255 221 266 263 296 329 351 351 7 288 254 357 317 293 319 356 32 3 43 82 344 5 330 283 244 356 92 208 75 86 22 312 295 278 238 175 134 91 82 85 75 62 61 62 65 70 62 51
10 9 7 4 4 3 3 3 0 358 357 356 358 2 2 352 332 314 327 348 349 356 356 353 342 320 33 282 286 324 282 226 224 235 252 238 241 262 246 230 241 221 216 244 283 316 315 320 3 299 290 117 255 313 347 358 19 4 13 36 38 35 292 290 271 113 107 248 78 85 81 281 299 293 243 176 118 97 76 58 58 58 62 62 59 64 66 58
8 7 5 3 2 2 4 4 0 357 356 355 356 2 6 358 327 312 329 336 335 344 348 357 2 8 21 302 306 326 243 217 216 232 247 243 257 298 257 225 225 237 235 242 257 290 284 273 28 21 290 329 28 10 0 352 354 31 42 326 346 168 258 299 280 160 154 241 76 85 54 292 333 331 316 350 61 87 65 49 54 63 69 66 62 64 65 65
6 6 4 1 1 2 3 2 359 356 354 351 347 346 350 346 329 315 326 328 323 327 338 360 23 48 52 296 319 350 229 215 224 254 267 273 307 357 287 230 225 244 243 240 251 280 291 255 21 136 283 350 50 50 20 10 346 9 108 252 275 250 267 318 323 166 159 153 55 72 66 356 349 8 22 18 39 75 70 63 61 60 63 64 68 70 66 65
4 4 3 0 359 1 1 360 357 355 356 353 352 356 353 337 335 329 323 337 319 314 320 325 356 38 36 277 306 304 219 217 237 278 252 246 309 316 321 297 246 257 252 259 268 279 321 36 337 354 25 5 64 81 39 3 323 333 11 283 273 290 352 22 7 359 128 107 56 62 77 59 358 39 58 54 63 78 77 71 65 60 56 55 61 65 64 63
2 2 1 359 358 0 360 358 355 354 1 5 9 20 31 21 2 41 41 354 323 323 327 317 4 52 332 287 272 230 188 205 233 313 246 232 265 279 296 313 291 307 306 304 305 274 358 13 17 10 3 5 41 83 94 228 223 311 352 36 320 349 33 43 51 322 40 84 72 74 75 58 44 55 67 68 69 74 75 73 68 63 56 51 57 61 57 56
1 0 360 358 357 358 358 357 353 354 7 17 19 21 36 41 34 60 29 3 357 12 332 307 86 87 300 256 234 235 229 251 260 326 261 245 257 283 289 283 275 348 46 347 314 283 95 28 29 44 320 316 103 140 160 189 181 216 236 119 45 44 29 3 8 328 63 76 64 81 81 52 53 56 63 66 68 72 71 68 65 62 58 51 57 61 57 54
1 359 358 357 356 356 357 354 353 356 9 21 20 17 33 30 16 3 352 355 199 221 262 244 207 256 289 259 236 333 323 293 284 235 265 261 256 304 313 296 304 64 117 205 270 293 94 76 283 191 224 244 211 177 150 116 57 348 14 48 61 80 14 330 13 341 45 84 58 87 77 50 55 58 59 69 71 70 69 68 65 64 60 50 55 57 58 53
1 359 357 355 355 356 354 353 359 6 18 30 28 32 58 29 20 318 324 321 260 249 249 249 238 241 264 271 3 40 69 314 296 264 273 274 259 9 333 317 344 314 242 200 226 337 83 137 245 213 215 233 13 28 26 12 2 16 57 56 52 86 352 296 27 346 35 91 78 87 76 49 50 56 49 65 72 70 73 78 73 68 64 54 54 50 55 57
1 359 356 353 354 356 353 357 10 21 42 47 39 50 70 16 2 296 322 317 293 278 250 264 251 227 262 306 6 34 60 28 338 309 286 320 54 36 302 355 1 269 259 171 112 20 53 198 250 219 199 322 27 28 18 358 23 54 78 83 25 43 280 301 347 5 51 91 209 89 85 58 30 45 48 59 74 81 81 84 83 75 66 54 53 52 53 59
0 359 356 352 352 357 357 4 20 37 62 59 43 42 5 360 351 325 347 236 294 296 267 293 311 188 329 352 4 22 38 56 22 321 305 19 44 70 143 14 343 297 324 84 140 109 63 251 254 132 63 34 11 17 38 27 50 67 78 96 296 287 82 324 318 25 58 84 158 99 93 67 12 17 39 48 72 83 79 82 83 79 77 71 65 62 57 58
358 359 357 351 350 359 2 14 24 30 53 66 43 29 1 347 341 338 357 159 295 295 273 354 27 86 1 329 344 21 18 351 101 269 339 46 23 355 80 5 350 348 340 43 123 109 156 249 258 42 26 33 31 19 59 66 34 359 83 117 174 270 154 216 257 70 67 56 68 80 67 9 355 0 7 13 61 71 68 75 71 67 77 78 68 62 62 65
357 358 357 353 351 0 10 32 16 11 24 65 31 8 360 341 326 338 34 86 329 296 286 355 18 16 334 324 339 35 30 356 352 252 14 69 60 8 25 3 13 341 330 36 90 78 350 288 18 45 15 40 91 52 72 105 62 342 286 169 172 191 213 243 289 69 68 16 322 76 71 315 320 351 325 328 59 59 46 59 61 54 55 55 52 49 51 55
355 356 358 356 348 359 21 45 2 2 18 45 1 346 347 341 326 332 67 60 351 297 311 343 7 2 345 340 349 29 41 338 299 254 154 98 126 109 35 348 352 326 326 24 87 75 17 6 36 52 34 40 65 38 24 101 92 356 267 191 160 127 93 356 89 90 107 214 285 42 118 244 310 340 301 333 64 53 37 46 46 46 47 46 48 44 41 41
353 354 357 358 350 357 19 341 348 2 29 341 341 339 341 344 338 333 72 47 349 295 317 311 341 14 353 321 317 53 71 268 302 304 228 50 39 84 62 332 352 341 320 43 59 290 359 28 32 42 47 43 36 3 322 86 98 273 247 168 107 98 94 79 84 89 160 176 340 0 109 123 294 270 289 4 70 51 36 40 33 36 41 42 45 44 44 40
351 353 355 359 355 349 354 336 338 356 348 330 337 341 348 357 344 45 85 65 290 293 301 292 336 350 332 322 344 103 202 231 9 291 268 89 39 59 52 300 26 13 359 66 56 289 351 42 44 56 56 41 1 286 269 86 106 248 238 166 105 112 122 106 90 87 107 87 359 321 82 93 259 270 317 12 76 58 39 42 36 38 42 44 46 43 43 40
350 352 352 355 353 338 337 337 335 346 338 334 339 341 339 350 4 62 77 100 270 302 252 331 348 323 333 353 359 2 288 174 141 262 294 42 64 76 77 276 69 41 13 67 90 310 326 232 154 99 87 178 263 274 287 342 273 251 219 91 68 77 94 94 105 120 61 66 224 246 103 103 255 288 319 13 75 88 88 70 54 54 57 56 55 52 45 40
350 351 349 348 347 336 331 332 338 344 335 332 335 331 316 347 53 69 42 161 259 285 254 357 350 305 353 20 349 330 344 277 264 318 359 18 26 52 82 346 71 68 9 31 63 341 304 274 133 93 157 211 233 274 301 317 282 281 50 59 56 44 40 59 78 98 75 354 242 216 148 115 167 279 263 165 127 157 162 125 43 49 55 51 53 57 53 51
348 349 347 341 337 331 325 330 344 334 329 333 332 332 10 13 67 88 68 170 266 309 333 350 337 336 14 46 330 315 346 330 330 21 10 0 23 22 21 25 38 51 17 6 3 339 335 357 8 309 291 336 18 334 328 344 8 37 55 78 80 24 8 29 8 42 96 267 256 198 142 98 119 254 229 165 164 153 140 125 94 67 56 43 46 55 53 63
346 346 342 331 323 317 306 309 332 327 331 337 335 356 76 39 36 68 282 19 344 302 326 312 315 340 0 32 303 284 341 333 332 49 54 31 47 31 52 110 114 44 15 344 346 340 334 327 309 315 346 28 37 12 345 355 17 29 45 75 84 19 8 29 333 27 129 263 248 161 123 69 227 229 179 166 167 150 143 146 128 111 115 148 152 92 58 70
346 343 335 320 310 310 304 299 312 322 329 335 344 49 74 74 43 351 339 6 261 247 294 318 317 321 337 3 310 285 9 346 342 34 53 64 70 47 42 102 125 95 79 264 27 359 336 311 336 355 354 15 48 67 11 348 353 358 31 96 104 96 62 288 281 24 152 286 307 119 97 41 279 254 177 168 168 164 153 148 144 144 164 186 174 134 81 71
346 343 329 308 303 309 309 294 291 308 324 335 20 65 58 78 46 9 21 327 272 278 347 349 323 324 331 294 258 298 33 326 329 35 33 31 58 51 31 16 70 97 109 79 59 48 53 303 319 359 310 336 5 101 149 186 318 317 230 115 114 138 134 177 215 164 174 249 8 47 61 160 205 248 197 163 158 161 145 136 147 169 187 171 129 111 88 56
345 344 325 302 314 325 310 276 250 290 317 353 62 66 66 88 265 27 357 283 303 332 331 335 350 354 335 299 284 350 100 268 325 40 41 44 93 92 102 275 13 95 98 68 342 83 82 255 262 257 254 295 331 299 290 72 350 301 68 81 91 167 142 144 186 170 153 130 58 358 277 200 193 225 168 136 134 129 122 140 161 193 199 124 105 137 145 233
347 349 334 301 322 321 254 239 184 174 343 55 69 68 111 164 209 151 209 255 300 322 336 352 28 46 341 319 325 341 70 124 353 43 30 51 93 43 71 45 13 86 117 114 140 33 56 278 276 302 294 261 302 308 317 105 150 305 48 76 234 174 125 109 262 353 91 102 271 244 178 288 346 41 113 122 118 90 125 183 193 204 178 108 134 193 219 241
350 349 332 307 325 225 159 138 153 138 66 78 86 97 137 170 179 171 230 279 302 358 48 23 345 45 345 328 328 328 0 15 2 52 358 12 21 336 32 42 14 49 130 131 146 195 120 288 286 336 339 287 308 0 352 102 114 81 61 221 241 48 80 101 98 0 48 110 262 120 170 222 77 85 85 117 148 237 222 215 219 221 156 124 179 227 249 253
345 341 318 300 288 141 93 94 158 140 73 68 78 97 105 69 131 170 222 35 35 43 72 87 277 23 21 3 318 313 350 3 335 21 143 97 9 330 30 53 356 0 72 103 85 210 111 26 289 327 351 299 344 37 2 338 35 90 193 204 99 69 356 33 101 123 77 132 287 349 287 240 165 207 167 151 202 222 224 234 240 223 171 157 216 258 268 279
341 346 326 260 177 125 37 132 162 96 64 63 66 92 99 100 253 220 190 99 67 65 77 178 268 13 6 56 292 304 358 12 321 353 113 142 130 326 16 56 319 342 17 82 105 213 97 99 277 305 330 320 2 41 12 319 339 24 15 9 51 133 166 140 137 154 137 154 179 24 317 283 226 216 175 189 222 212 213 241 234 211 196 192 220 249 268 287
1 28 305 247 175 205 308 148 115 55 67 93 145 146 96 144 245 274 219 91 85 119 117 173 355 8 318 338 346 306 355 4 334 356 96 81 113 254 329 30 165 325 19 59 95 84 51 92 233 298 332 17 19 5 28 304 317 16 23 3 346 349 96 99 355 83 125 142 153 151 225 265 249 212 170 190 220 210 200 213 207 201 208 216 229 244 261 277
50 44 275 291 93 251 255 83 54 69 94 68 101 111 18 133 97 321 340 64 97 175 163 150 132 46 285 327 351 324 341 356 357 17 12 28 97 190 272 331 169 197 38 43 51 84 82 104 147 303 339 15 241 248 178 220 215 148 107 356 255 59 67 78 336 316 70 122 151 153 193 261 258 210 180 190 208 213 195 181 180 195 212 228 242 253 254 215
66 38 263 335 332 267 37 60 332 69 100 123 166 129 49 98 70 338 353 34 55 204 82 122 128 81 240 252 338 346 0 355 0 24 9 354 134 199 256 29 37 92 94 72 307 185 143 103 88 276 269 231 245 261 224 226 197 134 127 120 121 111 97 112 188 271 350 14 36 118 146 259 261 222 198 203 206 209 199 171 160 185 218 230 244 267 245 194
81 272 297 7 3 242 68 50 327 24 91 189 155 79 53 95 85 345 18 29 24 7 9 18 53 42 271 266 24 14 15 6 349 47 28 336 327 300 340 17 10 50 77 68 297 295 101 83 69 304 296 296 292 314 345 354 51 70 349 7 89 92 128 141 170 177 83 324 2 83 46 263 274 266 226 222 209 175 180 153 144 178 221 232 252 276 218 201
330 264 303 16 47 171 81 94 229 65 161 115 80 44 19 70 105 83 60 16 357 59 21 322 17 44 276 258 53 356 38 82 338 357 119 205 289 298 338 29 65 79 98 187 205 277 46 108 84 50 359 348 340 343 345 346 18 71 279 306 68 90 89 87 79 87 69 257 146 122 233 248 269 294 288 287 19 63 69 138 153 177 210 230 255 272 187 200
339 254 277 341 9 69 88 163 152 140 164 80 95 182 79 23 328 134 139 196 199 149 111 282 303 23 307 346 30 342 89 103 286 296 71 178 219 283 358 68 84 102 190 196 160 97 118 150 113 107 118 137 250 274 278 293 322 306 283 311 358 97 95 90 56 73 111 237 125 136 216 258 290 315 327 325 45 89 103 178 181 191 207 227 248 157 179 209
22 45 291 332 5 44 40 178 108 113 154 101 88 225 128 103 299 211 128 130 197 131 108 271 339 34 0 13 25 339 353 7 303 320 17 359 356 329 26 59 46 285 190 143 98 84 90 100 120 139 162 187 199 224 225 182 203 268 267 290 297 127 109 105 98 118 189 161 57 206 194 238 292 294 312 312 178 146 185 205 206 213 212 223 227 159 194 220
71 49 38 348 339 5 3 354 72 96 160 129 118 262 150 144 248 342 16 175 182 101 69 336 30 68 346 5 27 318 333 352 345 29 14 1 33 357 21 50 12 266 152 100 84 92 77 8 274 170 197 221 211 226 242 196 201 233 239 252 248 210 134 121 157 211 166 114 290 248 184 175 264 260 248 250 222 218 233 211 201 206 202 201 149 144 202 344
188 320 144 139 217 333 13 306 112 92 88 127 125 240 173 136 154 189 280 242 159 95 85 350 343 296 241 168 105 296 334 2 351 354 352 356 26 3 0 5 311 274 106 49 26 98 101 272 250 201 258 265 241 249 267 243 224 231 230 229 224 207 175 173 206 203 152 149 233 230 188 198 245 252 225 213 205 221 237 216 187 181 176 159 91 72 36 4
349 339 307 66 89 210 229 252 133 87 86 147 101 203 193 157 155 193 190 101 354 307 127 138 290 274 253 174 119 137 299 33 328 300 317 356 2 23 20 327 301 308 80 73 338 76 103 240 250 198 314 297 282 283 290 283 261 249 237 222 210 203 193 192 217 202 170 188 212 194 198 228 243 229 216 214 208 211 226 96 122 135 140 119 77 58 24 353
5 321 316 12 0 293 262 291 60 78 294 319 71 244 201 146 149 204 148 121 168 287 99 135 263 269 242 150 117 191 224 184 211 248 237 7 340 333 81 226 245 313 17 131 308 48 90 261 256 97 21 304 292 312 327 319 286 251 247 238 210 206 212 211 218 193 175 210 205 167 193 259 263 222 210 237 259 108 80 104 129 136 128 99 67 42 4 342
323 278 283 24 308 311 329 330 25 83 262 157 184 234 207 152 178 180 46 134 153 163 146 155 212 316 25 61 69 255 245 210 214 232 214 191 229 226 247 239 173 4 337 211 191 70 99 282 320 54 26 286 288 349 339 328 330 295 280 273 228 201 207 216 216 194 180 179 171 156 195 256 259 225 190 354 28 93 121 144 138 109 110 100 75 38 356 330
347 307 321 48 237 319 12 333 358 54 204 223 211 216 191 194 192 138 77 329 111 140 167 158 139 78 28 8 300 242 234 237 252 247 220 200 211 213 219 212 161 154 213 193 175 166 137 122 24 64 16 276 288 339 340 347 11 339 277 252 221 208 196 193 233 223 194 160 157 188 217 228 226 157 124 98 112 129 151 172 147 113 102 92 75 31 349 319